Time,TemperatureF,DewpointF,PressureIn,WindDirection,WindDirectionDegrees,WindSpeedMPH,WindSpeedGustMPH,Humidity,HourlyPrecipIn,Conditions,Clouds,dailyrainin,SolarRadiationWatts/m^2,SoftwareType,DateUTC
2013-03-17 00:02:00,29.5,16.1,30.09,East,90,2.4,4.6,57,0.00,CLR,SCT,0.00,0.0,WeatherDisplay:10.37,2013-03-17 05:02:00,
2013-03-17 00:07:00,29.3,16.3,30.09,North,0,2.2,3.5,58,0.00,CLR,SCT,0.00,0.0,WeatherDisplay:10.37,2013-03-17 05:07:00,
2013-03-17 00:12:00,29.3,16.3,30.09,NE,45,2.0,3.5,58,0.00,CLR,SCT,0.00,0.0,WeatherDisplay:10.37,2013-03-17 05:12:00,
2013-03-17 00:17:00,29.3,16.3,30.09,NNE,22,2.4,5.8,58,0.00,CLR,SCT,0.00,0.0,WeatherDisplay:10.37,2013-03-17 05:17:00,
2013-03-17 00:22:00,29.3,16.3,30.12,ENE,68,2.9,4.6,58,0.00,CLR,SCT,0.00,0.0,WeatherDisplay:10.37,2013-03-17 05:22:00,
2013-03-17 00:27:00,29.1,16.2,30.12,ENE,68,3.3,4.6,58,0.00,CLR,SCT,0.00,0.0,WeatherDisplay:10.37,2013-03-17 05:27:00,
2013-03-17 00:32:00,29.1,16.2,30.12,ENE,68,2.9,3.5,58,0.00,CLR,SCT,0.00,0.0,WeatherDisplay:10.37,2013-03-17 05:32:00,
2013-03-17 00:37:00,28.9,16.0,30.12,East,90,3.8,6.4,58,0.00,CLR,SCT,0.00,0.0,WeatherDisplay:10.37,2013-03-17 05:37:00,
2013-03-17 00:42:00,28.9,15.6,30.12,ESE,112,2.0,3.5,57,0.00,CLR,SCT,0.00,0.0,WeatherDisplay:10.37,2013-03-17 05:42:00,
2013-03-17 00:47:00,28.8,15.4,30.12,SSE,158,2.2,4.9,57,0.00,CLR,SCT,0.00,0.0,WeatherDisplay:10.37,2013-03-17 05:47:00,
2013-03-17 00:52:00,28.8,15.4,30.12,North,0,2.9,4.7,57,0.00,CLR,SCT,0.00,0.0,WeatherDisplay:10.37,2013-03-17 05:52:00,
2013-03-17 00:57:00,28.6,15.3,30.12,ENE,68,2.4,3.5,57,0.00,CLR,SCT,0.00,0.0,WeatherDisplay:10.37,2013-03-17 05:57:00,
2013-03-17 01:02:00,28.6,15.3,30.12,ESE,112,3.1,3.6,57,0.00,CLR,SCT,0.00,0.0,WeatherDisplay:10.37,2013-03-17 06:02:00,
2013-03-17 01:07:00,28.6,15.7,30.12,ESE,112,2.2,3.5,58,0.00,CLR,SCT,0.00,0.0,WeatherDisplay:10.37,2013-03-17 06:07:00,
2013-03-17 01:12:00,28.6,15.7,30.12,NNE,22,1.6,3.5,58,0.00,CLR,SCT,0.00,0.0,WeatherDisplay:10.37,2013-03-17 06:12:00,
2013-03-17 01:17:00,28.4,15.5,30.12,East,90,4.0,5.8,58,0.00,CLR,SCT,0.00,0.0,WeatherDisplay:10.37,2013-03-17 06:17:00,
2013-03-17 01:23:00,28.2,15.3,30.12,ENE,68,3.1,4.3,58,0.00,CLR,SCT,0.00,0.0,WeatherDisplay:10.37,2013-03-17 06:23:00,
2013-03-17 01:28:00,28.2,15.3,30.12,ESE,112,3.3,5.8,58,0.00,CLR,SCT,0.00,0.0,WeatherDisplay:10.37,2013-03-17 06:28:00,
2013-03-17 01:33:00,28.0,15.2,30.12,ENE,68,3.3,8.1,58,0.00,CLR,SCT,0.00,0.0,WeatherDisplay:10.37,2013-03-17 06:33:00,
2013-03-17 01:38:00,28.0,15.2,30.09,North,0,2.9,3.6,58,0.00,CLR,SCT,0.00,0.0,WeatherDisplay:10.37,2013-03-17 06:38:00,
2013-03-17 01:43:00,27.9,15.0,30.09,ESE,112,3.1,4.9,58,0.00,CLR,SCT,0.00,0.0,WeatherDisplay:10.37,2013-03-17 06:43:00,
2013-03-17 01:48:00,27.9,15.0,30.09,NE,45,2.2,3.5,58,0.00,CLR,SCT,0.00,0.0,WeatherDisplay:10.37,2013-03-17 06:48:00,
2013-03-17 01:53:00,27.9,15.0,30.09,East,90,2.9,3.6,58,0.00,CLR,SCT,0.00,0.0,WeatherDisplay:10.37,2013-03-17 06:53:00,
2013-03-17 01:58:00,27.9,15.0,30.09,North,0,3.3,3.5,58,0.00,CLR,SCT,0.00,0.0,WeatherDisplay:10.37,2013-03-17 06:58:00,
2013-03-17 02:03:00,27.9,15.4,30.09,ENE,68,2.9,4.6,59,0.00,CLR,SCT,0.00,0.0,WeatherDisplay:10.37,2013-03-17 07:03:00,
2013-03-17 02:08:00,27.9,15.8,30.09,ENE,68,2.4,4.6,60,0.00,CLR,SCT,0.00,0.0,WeatherDisplay:10.37,2013-03-17 07:08:00,
2013-03-17 02:14:00,27.7,16.0,30.09,ENE,68,3.3,4.6,61,0.00,CLR,SCT,0.00,0.0,WeatherDisplay:10.37,2013-03-17 07:14:00,
2013-03-17 02:19:00,27.7,16.0,30.09,ENE,68,2.2,3.5,61,0.00,CLR,SCT,0.00,0.0,WeatherDisplay:10.37,2013-03-17 07:19:00,
2013-03-17 02:24:00,27.7,15.6,30.09,ENE,68,3.3,3.5,60,0.00,CLR,SCT,0.00,0.0,WeatherDisplay:10.37,2013-03-17 07:24:00,
2013-03-17 02:29:00,27.5,15.4,30.09,NNE,22,2.4,3.5,60,0.00,CLR,SCT,0.00,0.0,WeatherDisplay:10.37,2013-03-17 07:29:00,
2013-03-17 02:34:00,27.5,15.4,30.09,ENE,68,3.1,4.6,60,0.00,CLR,SCT,0.00,0.0,WeatherDisplay:10.37,2013-03-17 07:34:00,
2013-03-17 02:39:00,27.5,15.4,30.09,NNE,22,2.6,5.8,60,0.00,CLR,SCT,0.00,0.0,WeatherDisplay:10.37,2013-03-17 07:39:00,
2013-03-17 02:44:00,27.3,15.2,30.09,East,90,2.4,2.4,60,0.00,CLR,SCT,0.00,0.0,WeatherDisplay:10.37,2013-03-17 07:44:00,
2013-03-17 02:49:00,27.3,15.6,30.09,East,90,3.6,4.9,61,0.00,CLR,SCT,0.00,0.0,WeatherDisplay:10.37,2013-03-17 07:49:00,
2013-03-17 02:54:00,27.3,15.6,30.09,ENE,68,4.0,5.8,61,0.00,CLR,SCT,0.00,0.0,WeatherDisplay:10.37,2013-03-17 07:54:00,
2013-03-17 02:59:00,27.3,16.0,30.09,ESE,112,2.6,4.6,62,0.00,CLR,SCT,0.00,0.0,WeatherDisplay:10.37,2013-03-17 07:59:00,
2013-03-17 03:04:00,27.3,16.0,30.09,SE,135,2.9,3.8,62,0.00,CLR,SCT,0.00,0.0,WeatherDisplay:10.37,2013-03-17 08:04:00,
2013-03-17 03:09:00,27.1,16.2,30.09,ESE,112,4.7,5.8,63,0.00,CLR,SCT,0.00,0.0,WeatherDisplay:10.37,2013-03-17 08:09:00,
2013-03-17 03:14:00,27.1,16.6,30.09,East,90,4.0,5.8,64,0.00,CLR,SCT,0.00,0.0,WeatherDisplay:10.37,2013-03-17 08:14:00,
2013-03-17 03:20:00,27.1,16.6,30.09,ENE,68,3.1,3.6,64,0.00,CLR,SCT,0.00,0.0,WeatherDisplay:10.37,2013-03-17 08:20:00,
2013-03-17 08:58:00,27.1,16.6,30.09,North,0,0.0,4.6,64,0.00,OVC,SCT,0.00,0.0,WeatherDisplay:10.37,2013-03-17 13:58:00,
2013-03-17 09:03:00,25.0,14.9,30.06,ENE,68,4.9,4.9,65,0.00,OVC,SCT,0.00,0.0,WeatherDisplay:10.37,2013-03-17 14:03:00,
2013-03-17 09:09:00,25.3,14.9,30.06,East,90,6.0,8.1,64,0.00,OVC,SCT,0.00,0.0,WeatherDisplay:10.37,2013-03-17 14:09:00,
2013-03-17 09:14:00,25.3,14.9,30.06,ESE,112,4.5,5.9,64,0.00,OVC,SCT,0.00,0.0,WeatherDisplay:10.37,2013-03-17 14:14:00,
2013-03-17 09:19:00,25.5,15.0,30.06,ESE,112,3.6,5.8,64,0.00,OVC,SCT,0.00,0.0,WeatherDisplay:10.37,2013-03-17 14:19:00,
2013-03-17 09:24:00,25.7,14.8,30.03,ESE,112,6.2,6.4,63,0.00,OVC,SCT,0.00,0.0,WeatherDisplay:10.37,2013-03-17 14:24:00,
2013-03-17 09:29:00,26.1,14.8,30.03,ESE,112,6.4,8.1,62,0.00,OVC,SCT,0.00,0.0,WeatherDisplay:10.37,2013-03-17 14:29:00,
2013-03-17 09:34:00,26.2,15.0,30.03,East,90,6.7,9.2,62,0.00,OVC,SCT,0.00,0.0,WeatherDisplay:10.37,2013-03-17 14:34:00,
2013-03-17 09:39:00,26.6,14.9,30.03,ESE,112,6.0,8.1,61,0.00,OVC,SCT,0.00,0.0,WeatherDisplay:10.37,2013-03-17 14:39:00,
2013-03-17 09:44:00,27.1,15.1,30.03,SE,135,6.2,8.1,60,0.00,OVC,SCT,0.00,0.0,WeatherDisplay:10.37,2013-03-17 14:44:00,
2013-03-17 09:49:00,27.9,15.8,30.03,ESE,112,5.9,8.1,60,0.00,OVC,SCT,0.00,0.0,WeatherDisplay:10.37,2013-03-17 14:49:00,
2013-03-17 09:55:00,28.4,15.5,30.03,ENE,68,5.9,11.5,58,0.00,OVC,SCT,0.00,0.0,WeatherDisplay:10.37,2013-03-17 14:55:00,
2013-03-17 10:00:00,28.4,14.7,30.03,East,90,5.6,8.1,56,0.00,OVC,SCT,0.00,0.0,WeatherDisplay:10.37,2013-03-17 15:00:00,
2013-03-17 10:05:00,28.0,13.9,30.03,ESE,112,5.6,10.5,55,0.00,OVC,SCT,0.00,0.0,WeatherDisplay:10.37,2013-03-17 15:05:00,
2013-03-17 10:10:00,28.0,13.5,30.03,ESE,112,5.4,8.1,54,0.00,OVC,SCT,0.00,0.0,WeatherDisplay:10.37,2013-03-17 15:10:00,
2013-03-17 10:15:00,29.1,14.9,30.03,ESE,112,6.0,7.4,55,0.00,OVC,SCT,0.00,0.0,WeatherDisplay:10.37,2013-03-17 15:15:00,
2013-03-17 10:20:00,29.7,15.0,30.03,ESE,112,5.9,8.1,54,0.00,OVC,SCT,0.00,100.0,WeatherDisplay:10.37,2013-03-17 15:20:00,
2013-03-17 10:26:00,30.4,15.3,30.03,ESE,112,4.5,6.9,53,0.00,OVC,SCT,0.00,100.0,WeatherDisplay:10.37,2013-03-17 15:26:00,
2013-03-17 10:31:00,30.7,14.7,30.03,ESE,112,4.9,9.2,51,0.00,OVC,SCT,0.00,100.0,WeatherDisplay:10.37,2013-03-17 15:31:00,
2013-03-17 10:36:00,30.7,14.3,30.00,South,180,5.9,7.4,50,0.00,OVC,SCT,0.00,100.0,WeatherDisplay:10.37,2013-03-17 15:36:00,
2013-03-17 10:41:00,30.9,14.4,30.00,ENE,68,5.4,5.9,50,0.00,OVC,SCT,0.00,100.0,WeatherDisplay:10.37,2013-03-17 15:41:00,
2013-03-17 10:46:00,31.1,14.6,30.00,ESE,112,7.4,8.7,50,0.00,OVC,SCT,0.00,100.0,WeatherDisplay:10.37,2013-03-17 15:46:00,
2013-03-17 10:52:00,31.1,14.1,30.00,ESE,112,6.2,8.7,49,0.00,OVC,SCT,0.00,100.0,WeatherDisplay:10.37,2013-03-17 15:52:00,
2013-03-17 10:57:00,31.6,14.6,30.00,SSE,158,6.7,8.1,49,0.00,OVC,SCT,0.00,100.0,WeatherDisplay:10.37,2013-03-17 15:57:00,
2013-03-17 11:02:00,32.0,15.0,30.00,East,90,6.0,8.1,49,0.00,OVC,SCT,0.00,100.0,WeatherDisplay:10.37,2013-03-17 16:02:00,
2013-03-17 11:07:00,32.5,15.0,30.00,ESE,112,6.2,10.4,48,0.00,OVC,SCT,0.00,100.0,WeatherDisplay:10.37,2013-03-17 16:07:00,
2013-03-17 11:12:00,32.7,15.2,30.00,ESE,112,5.9,6.7,48,0.00,OVC,SCT,0.00,100.0,WeatherDisplay:10.37,2013-03-17 16:12:00,
2013-03-17 11:17:00,33.3,15.7,30.00,ESE,112,6.2,8.1,48,0.00,OVC,SCT,0.00,100.0,WeatherDisplay:10.37,2013-03-17 16:17:00,
2013-03-17 11:22:00,33.8,16.2,29.97,East,90,4.5,8.1,48,0.00,OVC,SCT,0.00,200.0,WeatherDisplay:10.37,2013-03-17 16:22:00,
2013-03-17 11:28:00,34.0,14.8,29.97,SE,135,7.1,10.4,45,0.00,OVC,SCT,0.00,200.0,WeatherDisplay:10.37,2013-03-17 16:28:00,
2013-03-17 11:33:00,33.8,14.2,29.97,ESE,112,4.9,9.4,44,0.00,OVC,SCT,0.00,200.0,WeatherDisplay:10.37,2013-03-17 16:33:00,
2013-03-17 11:38:00,33.6,13.5,29.97,SSE,158,8.1,10.4,43,0.00,OVC,SCT,0.00,200.0,WeatherDisplay:10.37,2013-03-17 16:38:00,
2013-03-17 11:44:00,33.6,14.0,29.97,ESE,112,4.7,9.2,44,0.00,OVC,SCT,0.00,200.0,WeatherDisplay:10.37,2013-03-17 16:44:00,
2013-03-17 11:49:00,34.3,14.7,29.97,ESE,112,7.6,8.1,44,0.00,OVC,SCT,0.00,200.0,WeatherDisplay:10.37,2013-03-17 16:49:00,
2013-03-17 11:54:00,34.0,13.8,29.94,ESE,112,6.4,8.1,43,0.00,OVC,SCT,0.00,200.0,WeatherDisplay:10.37,2013-03-17 16:54:00,
2013-03-17 11:59:00,34.3,14.7,29.94,ESE,112,7.8,11.5,44,0.00,OVC,SCT,0.00,200.0,WeatherDisplay:10.37,2013-03-17 16:59:00,
2013-03-17 12:04:00,34.5,14.8,29.94,East,90,7.6,12.7,44,0.00,OVC,SCT,0.00,200.0,WeatherDisplay:10.37,2013-03-17 17:04:00,
2013-03-17 12:09:00,34.9,15.1,29.94,ESE,112,7.1,10.4,44,0.00,OVC,SCT,0.00,200.0,WeatherDisplay:10.37,2013-03-17 17:09:00,
2013-03-17 12:14:00,35.4,16.2,29.94,East,90,3.8,8.1,45,0.00,OVC,SCT,0.00,200.0,WeatherDisplay:10.37,2013-03-17 17:14:00,
2013-03-17 12:19:00,35.6,15.3,29.94,East,90,6.9,10.4,43,0.00,OVC,SCT,0.00,200.0,WeatherDisplay:10.37,2013-03-17 17:19:00,
2013-03-17 12:24:00,35.8,15.4,29.94,ESE,112,8.1,11.5,43,0.00,OVC,SCT,0.00,200.0,WeatherDisplay:10.37,2013-03-17 17:24:00,
2013-03-17 12:29:00,36.1,15.8,29.94,ESE,112,5.9,9.2,43,0.00,OVC,SCT,0.00,200.0,WeatherDisplay:10.37,2013-03-17 17:29:00,
2013-03-17 12:34:00,36.1,15.2,29.94,ESE,112,9.0,12.7,42,0.00,OVC,SCT,0.00,200.0,WeatherDisplay:10.37,2013-03-17 17:34:00,
2013-03-17 12:39:00,36.3,15.4,29.97,ESE,112,6.9,10.4,42,0.00,OVC,SCT,0.00,200.0,WeatherDisplay:10.37,2013-03-17 17:39:00,
2013-03-17 12:44:00,36.5,16.1,29.97,ESE,112,7.4,12.7,43,0.00,OVC,SCT,0.00,200.0,WeatherDisplay:10.37,2013-03-17 17:44:00,
2013-03-17 12:49:00,36.5,15.6,29.97,ESE,112,6.7,12.7,42,0.00,OVC,SCT,0.00,200.0,WeatherDisplay:10.37,2013-03-17 17:49:00,
2013-03-17 12:54:00,36.9,15.9,29.94,East,90,6.0,9.2,42,0.00,OVC,SCT,0.00,200.0,WeatherDisplay:10.37,2013-03-17 17:54:00,
2013-03-17 12:59:00,37.0,16.0,29.94,ESE,112,6.7,15.0,42,0.00,OVC,SCT,0.00,200.0,WeatherDisplay:10.37,2013-03-17 17:59:00,
2013-03-17 13:04:00,37.4,15.8,29.94,ENE,68,7.1,9.2,41,0.00,OVC,SCT,0.00,200.0,WeatherDisplay:10.37,2013-03-17 18:04:00,
2013-03-17 13:09:00,37.6,16.0,29.88,SE,135,7.6,11.5,41,0.00,OVC,SCT,0.00,200.0,WeatherDisplay:10.37,2013-03-17 18:09:00,
2013-03-17 13:14:00,37.9,16.3,29.88,ESE,112,8.1,11.4,41,0.00,OVC,SCT,0.00,200.0,WeatherDisplay:10.37,2013-03-17 18:14:00,
2013-03-17 13:19:00,38.3,16.6,29.88,SSE,158,8.1,12.7,41,0.00,OVC,SCT,0.00,200.0,WeatherDisplay:10.37,2013-03-17 18:19:00,
2013-03-17 13:24:00,38.1,16.5,29.88,ESE,112,6.4,8.1,41,0.00,OVC,SCT,0.00,200.0,WeatherDisplay:10.37,2013-03-17 18:24:00,
2013-03-17 13:29:00,38.7,17.0,29.88,ENE,68,6.9,10.4,41,0.00,OVC,SCT,0.00,200.0,WeatherDisplay:10.37,2013-03-17 18:29:00,
2013-03-17 13:34:00,38.8,17.1,29.88,ENE,68,6.9,10.4,41,0.00,OVC,SCT,0.00,200.0,WeatherDisplay:10.37,2013-03-17 18:34:00,
2013-03-17 13:39:00,39.4,17.6,29.88,ESE,112,5.9,8.1,41,0.00,OVC,SCT,0.00,200.0,WeatherDisplay:10.37,2013-03-17 18:39:00,
2013-03-17 13:44:00,39.6,17.8,29.88,ESE,112,6.0,8.1,41,0.00,OVC,SCT,0.00,200.0,WeatherDisplay:10.37,2013-03-17 18:44:00,
2013-03-17 13:49:00,40.1,17.7,29.88,ENE,68,4.9,8.1,40,0.00,OVC,SCT,0.00,200.0,WeatherDisplay:10.37,2013-03-17 18:49:00,
2013-03-17 13:54:00,39.7,17.4,29.88,East,90,4.3,9.2,40,0.00,OVC,SCT,0.00,200.0,WeatherDisplay:10.37,2013-03-17 18:54:00,
2013-03-17 13:59:00,40.3,17.8,29.88,ESE,112,4.7,6.9,40,0.00,OVC,SCT,0.00,200.0,WeatherDisplay:10.37,2013-03-17 18:59:00,
2013-03-17 14:04:00,40.8,18.3,29.88,SSE,158,4.7,7.1,40,0.00,OVC,SCT,0.00,200.0,WeatherDisplay:10.37,2013-03-17 19:04:00,
2013-03-17 14:09:00,41.0,17.9,29.88,ESE,112,4.7,5.8,39,0.00,OVC,SCT,0.00,200.0,WeatherDisplay:10.37,2013-03-17 19:09:00,
2013-03-17 14:14:00,40.8,17.7,29.88,SE,135,6.4,8.7,39,0.00,OVC,SCT,0.00,200.0,WeatherDisplay:10.37,2013-03-17 19:14:00,
2013-03-17 14:19:00,40.6,17.6,29.88,East,90,4.9,6.9,39,0.00,OVC,SCT,0.00,200.0,WeatherDisplay:10.37,2013-03-17 19:19:00,
2013-03-17 14:24:00,40.6,17.6,29.88,East,90,4.5,8.5,39,0.00,OVC,SCT,0.00,200.0,WeatherDisplay:10.37,2013-03-17 19:24:00,
2013-03-17 14:29:00,41.5,19.0,29.88,ESE,112,4.9,5.8,40,0.00,OVC,SCT,0.00,200.0,WeatherDisplay:10.37,2013-03-17 19:29:00,
2013-03-17 14:35:00,42.1,18.9,29.88,ESE,112,5.4,9.8,39,0.00,OVC,SCT,0.00,200.0,WeatherDisplay:10.37,2013-03-17 19:35:00,
2013-03-17 14:40:00,42.1,18.9,29.85,ESE,112,6.0,10.4,39,0.00,OVC,SCT,0.00,200.0,WeatherDisplay:10.37,2013-03-17 19:40:00,
2013-03-17 14:45:00,42.4,19.2,29.85,SSE,158,6.0,8.1,39,0.00,OVC,SCT,0.00,200.0,WeatherDisplay:10.37,2013-03-17 19:45:00,
2013-03-17 14:50:00,42.8,18.9,29.85,ESE,112,5.4,8.1,38,0.00,OVC,SCT,0.00,200.0,WeatherDisplay:10.37,2013-03-17 19:50:00,
2013-03-17 14:55:00,43.0,19.7,29.85,SSW,202,6.4,8.1,39,0.00,OVC,SCT,0.00,200.0,WeatherDisplay:10.37,2013-03-17 19:55:00,
2013-03-17 15:00:00,43.0,19.1,29.85,SSE,158,6.9,10.4,38,0.00,OVC,SCT,0.00,200.0,WeatherDisplay:10.37,2013-03-17 20:00:00,
2013-03-17 15:05:00,43.3,19.4,29.83,ESE,112,4.3,8.1,38,0.00,OVC,SCT,0.00,200.0,WeatherDisplay:10.37,2013-03-17 20:05:00,
2013-03-17 15:11:00,43.2,19.2,29.83,ENE,68,5.4,10.4,38,0.00,OVC,SCT,0.00,200.0,WeatherDisplay:10.37,2013-03-17 20:11:00,
2013-03-17 15:16:00,43.3,20.0,29.83,SSE,158,7.6,8.1,39,0.00,OVC,SCT,0.00,200.0,WeatherDisplay:10.37,2013-03-17 20:16:00,
2013-03-17 15:21:00,43.7,20.3,29.83,SSW,202,6.4,8.1,39,0.00,OVC,SCT,0.00,200.0,WeatherDisplay:10.37,2013-03-17 20:21:00,
2013-03-17 15:26:00,43.7,19.7,29.83,ESE,112,7.4,9.2,38,0.00,OVC,SCT,0.00,200.0,WeatherDisplay:10.37,2013-03-17 20:26:00,
2013-03-17 15:31:00,43.5,20.2,29.83,ESE,112,7.8,10.4,39,0.00,OVC,SCT,0.00,100.0,WeatherDisplay:10.37,2013-03-17 20:31:00,
2013-03-17 15:36:00,43.9,20.5,29.83,SSW,202,6.4,10.2,39,0.00,OVC,SCT,0.00,100.0,WeatherDisplay:10.37,2013-03-17 20:36:00,
2013-03-17 15:41:00,43.7,20.3,29.83,ESE,112,6.0,7.4,39,0.00,OVC,SCT,0.00,100.0,WeatherDisplay:10.37,2013-03-17 20:41:00,
2013-03-17 15:46:00,43.9,20.5,29.83,ESE,112,5.6,9.2,39,0.00,OVC,SCT,0.00,100.0,WeatherDisplay:10.37,2013-03-17 20:46:00,
2013-03-17 15:52:00,44.6,21.1,29.80,ESE,112,7.4,9.4,39,0.00,OVC,SCT,0.00,100.0,WeatherDisplay:10.37,2013-03-17 20:52:00,
2013-03-17 15:57:00,44.6,20.5,29.80,SE,135,7.8,10.4,38,0.00,OVC,SCT,0.00,100.0,WeatherDisplay:10.37,2013-03-17 20:57:00,
2013-03-17 16:02:00,44.6,21.1,29.80,SSW,202,7.8,9.2,39,0.00,OVC,SCT,0.00,100.0,WeatherDisplay:10.37,2013-03-17 21:02:00,
2013-03-17 16:07:00,45.1,21.6,29.77,SSE,158,7.4,9.8,39,0.00,OVC,SCT,0.00,0.0,WeatherDisplay:10.37,2013-03-17 21:07:00,
2013-03-17 16:12:00,44.6,21.1,29.77,ESE,112,5.4,9.8,39,0.00,OVC,SCT,0.00,0.0,WeatherDisplay:10.37,2013-03-17 21:12:00,
2013-03-17 16:17:00,44.4,21.0,29.77,East,90,6.2,10.4,39,0.00,OVC,SCT,0.00,0.0,WeatherDisplay:10.37,2013-03-17 21:17:00,
2013-03-17 16:22:00,44.4,21.6,29.77,SSE,158,6.4,8.1,40,0.00,OVC,SCT,0.00,0.0,WeatherDisplay:10.37,2013-03-17 21:22:00,
2013-03-17 16:27:00,44.2,20.8,29.77,ESE,112,4.9,10.4,39,0.00,OVC,SCT,0.00,0.0,WeatherDisplay:10.37,2013-03-17 21:27:00,
2013-03-17 16:32:00,44.6,21.1,29.77,ESE,112,7.4,8.1,39,0.00,OVC,SCT,0.00,0.0,WeatherDisplay:10.37,2013-03-17 21:32:00,
2013-03-17 16:37:00,44.2,20.8,29.77,NE,45,5.9,12.7,39,0.00,OVC,SCT,0.00,0.0,WeatherDisplay:10.37,2013-03-17 21:37:00,
2013-03-17 16:42:00,43.9,21.1,29.77,ESE,112,4.9,7.8,40,0.00,OVC,SCT,0.00,0.0,WeatherDisplay:10.37,2013-03-17 21:42:00,
2013-03-17 16:47:00,43.7,20.9,29.77,ESE,112,7.8,9.2,40,0.00,OVC,SCT,0.00,0.0,WeatherDisplay:10.37,2013-03-17 21:47:00,
2013-03-17 16:52:00,44.1,21.8,29.77,SE,135,4.3,5.8,41,0.00,OVC,SCT,0.00,0.0,WeatherDisplay:10.37,2013-03-17 21:52:00,
2013-03-17 16:57:00,44.2,22.0,29.77,ESE,112,8.1,10.5,41,0.00,OVC,SCT,0.00,0.0,WeatherDisplay:10.37,2013-03-17 21:57:00,
2013-03-17 17:02:00,44.6,22.3,29.77,ESE,112,7.8,11.5,41,0.00,OVC,SCT,0.00,0.0,WeatherDisplay:10.37,2013-03-17 22:02:00,
2013-03-17 17:07:00,44.8,21.9,29.77,ESE,112,6.7,12.7,40,0.00,OVC,SCT,0.00,0.0,WeatherDisplay:10.37,2013-03-17 22:07:00,
2013-03-17 17:12:00,44.6,21.7,29.77,ESE,112,6.0,10.4,40,0.00,OVC,SCT,0.00,0.0,WeatherDisplay:10.37,2013-03-17 22:12:00,
2013-03-17 17:17:00,44.6,21.7,29.77,ENE,68,6.0,6.9,40,0.00,OVC,SCT,0.00,0.0,WeatherDisplay:10.37,2013-03-17 22:17:00,
2013-03-17 17:22:00,44.8,21.9,29.77,ESE,112,7.8,11.5,40,0.00,OVC,SCT,0.00,0.0,WeatherDisplay:10.37,2013-03-17 22:22:00,
2013-03-17 17:27:00,44.6,21.7,29.77,South,180,9.2,12.7,40,0.00,OVC,SCT,0.00,0.0,WeatherDisplay:10.37,2013-03-17 22:27:00,
2013-03-17 17:33:00,44.4,22.2,29.77,ESE,112,6.7,8.1,41,0.00,OVC,SCT,0.00,0.0,WeatherDisplay:10.37,2013-03-17 22:33:00,
2013-03-17 17:38:00,44.4,22.2,29.74,ESE,112,5.9,12.7,41,0.00,OVC,SCT,0.00,0.0,WeatherDisplay:10.37,2013-03-17 22:38:00,
2013-03-17 17:43:00,44.4,22.2,29.74,ESE,112,7.8,8.1,41,0.00,OVC,SCT,0.00,0.0,WeatherDisplay:10.37,2013-03-17 22:43:00,
2013-03-17 17:48:00,44.4,22.2,29.74,SSE,158,6.2,8.1,41,0.00,OVC,SCT,0.00,0.0,WeatherDisplay:10.37,2013-03-17 22:48:00,
2013-03-17 17:53:00,44.2,22.0,29.74,ESE,112,4.5,6.0,41,0.00,OVC,SCT,0.00,0.0,WeatherDisplay:10.37,2013-03-17 22:53:00,
2013-03-17 17:58:00,44.4,22.2,29.74,South,180,6.0,9.2,41,0.00,OVC,SCT,0.00,0.0,WeatherDisplay:10.37,2013-03-17 22:58:00,
2013-03-17 18:03:00,44.2,22.0,29.74,SSE,158,7.8,12.7,41,0.00,OVC,SCT,0.00,0.0,WeatherDisplay:10.37,2013-03-17 23:03:00,
2013-03-17 18:08:00,44.2,22.6,29.74,South,180,6.7,8.1,42,0.00,OVC,SCT,0.00,0.0,WeatherDisplay:10.37,2013-03-17 23:08:00,
2013-03-17 18:13:00,44.2,22.6,29.74,SE,135,6.7,8.1,42,0.00,OVC,SCT,0.00,0.0,WeatherDisplay:10.37,2013-03-17 23:13:00,
2013-03-17 18:18:00,44.2,22.6,29.74,SE,135,4.3,6.9,42,0.00,OVC,SCT,0.00,0.0,WeatherDisplay:10.37,2013-03-17 23:18:00,
2013-03-17 18:24:00,44.2,22.6,29.74,SE,135,5.9,8.1,42,0.00,OVC,SCT,0.00,0.0,WeatherDisplay:10.37,2013-03-17 23:24:00,
2013-03-17 18:29:00,44.1,22.4,29.74,ESE,112,5.9,9.2,42,0.00,OVC,SCT,0.00,0.0,WeatherDisplay:10.37,2013-03-17 23:29:00,
2013-03-17 18:34:00,44.1,23.0,29.74,ESE,112,6.2,8.1,43,0.00,OVC,SCT,0.00,0.0,WeatherDisplay:10.37,2013-03-17 23:34:00,
2013-03-17 18:39:00,43.9,22.8,29.74,ESE,112,7.4,9.8,43,0.00,OVC,SCT,0.00,0.0,WeatherDisplay:10.37,2013-03-17 23:39:00,
2013-03-17 18:44:00,43.9,22.8,29.74,ESE,112,6.2,10.4,43,0.00,OVC,SCT,0.00,0.0,WeatherDisplay:10.37,2013-03-17 23:44:00,
2013-03-17 18:49:00,43.7,23.2,29.74,ESE,112,6.7,8.1,44,0.00,OVC,SCT,0.00,0.0,WeatherDisplay:10.37,2013-03-17 23:49:00,
2013-03-17 18:55:00,43.7,23.2,29.71,ESE,112,5.9,6.2,44,0.00,OVC,SCT,0.00,0.0,WeatherDisplay:10.37,2013-03-17 23:55:00,
2013-03-17 19:00:00,43.5,23.0,29.71,ESE,112,8.5,10.7,44,0.00,OVC,SCT,0.00,0.0,WeatherDisplay:10.37,2013-03-18 00:00:00,
2013-03-17 19:05:00,43.3,23.4,29.71,ESE,112,6.7,9.2,45,0.00,OVC,SCT,0.00,0.0,WeatherDisplay:10.37,2013-03-18 00:05:00,
2013-03-17 19:10:00,43.3,23.4,29.74,SE,135,5.4,8.1,45,0.00,OVC,SCT,0.00,0.0,WeatherDisplay:10.37,2013-03-18 00:10:00,
2013-03-17 19:15:00,43.2,23.2,29.74,ESE,112,7.1,9.2,45,0.00,OVC,SCT,0.00,0.0,WeatherDisplay:10.37,2013-03-18 00:15:00,
2013-03-17 19:21:00,43.2,23.8,29.74,East,90,6.7,9.4,46,0.00,OVC,SCT,0.00,0.0,WeatherDisplay:10.37,2013-03-18 00:21:00,
2013-03-17 19:26:00,43.0,23.6,29.74,ESE,112,6.4,13.8,46,0.00,OVC,SCT,0.00,0.0,WeatherDisplay:10.37,2013-03-18 00:26:00,
2013-03-17 19:31:00,42.8,23.4,29.74,ESE,112,6.2,9.2,46,0.00,OVC,SCT,0.00,0.0,WeatherDisplay:10.37,2013-03-18 00:31:00,
2013-03-17 19:36:00,42.8,23.4,29.74,SSW,202,6.2,10.0,46,0.00,OVC,SCT,0.00,0.0,WeatherDisplay:10.37,2013-03-18 00:36:00,
2013-03-17 19:41:00,42.4,23.6,29.74,SSE,158,6.2,10.4,47,0.00,OVC,SCT,0.00,0.0,WeatherDisplay:10.37,2013-03-18 00:41:00,
2013-03-17 19:46:00,42.4,23.6,29.74,SSW,202,5.9,10.4,47,0.00,OVC,SCT,0.00,0.0,WeatherDisplay:10.37,2013-03-18 00:46:00,
2013-03-17 19:51:00,42.3,23.4,29.74,East,90,5.9,9.2,47,0.00,OVC,SCT,0.00,0.0,WeatherDisplay:10.37,2013-03-18 00:51:00,
2013-03-17 19:57:00,42.1,23.8,29.74,East,90,4.7,9.2,48,0.00,OVC,SCT,0.00,0.0,WeatherDisplay:10.37,2013-03-18 00:57:00,
2013-03-17 20:02:00,41.9,23.6,29.74,SSE,158,5.4,5.8,48,0.00,CLR,SCT,0.00,0.0,WeatherDisplay:10.37,2013-03-18 01:02:00,
2013-03-17 20:07:00,41.7,23.5,29.77,ESE,112,4.5,7.4,48,0.00,CLR,SCT,0.00,0.0,WeatherDisplay:10.37,2013-03-18 01:07:00,
2013-03-17 20:12:00,41.5,23.3,29.77,East,90,4.7,7.1,48,0.00,CLR,SCT,0.00,0.0,WeatherDisplay:10.37,2013-03-18 01:12:00,
2013-03-17 20:18:00,41.4,23.6,29.77,ESE,112,6.7,8.1,49,0.00,CLR,SCT,0.00,0.0,WeatherDisplay:10.37,2013-03-18 01:18:00,
2013-03-17 20:23:00,41.2,23.4,29.77,ESE,112,5.6,5.8,49,0.00,CLR,SCT,0.00,0.0,WeatherDisplay:10.37,2013-03-18 01:23:00,
2013-03-17 20:28:00,40.8,23.6,29.77,SSE,158,5.4,6.2,50,0.00,CLR,SCT,0.00,0.0,WeatherDisplay:10.37,2013-03-18 01:28:00,
2013-03-17 20:34:00,40.6,23.4,29.77,ESE,112,5.6,6.9,50,0.00,CLR,SCT,0.00,0.0,WeatherDisplay:10.37,2013-03-18 01:34:00,
2013-03-17 20:39:00,40.3,24.0,29.77,ESE,112,7.1,10.4,52,0.00,CLR,SCT,0.00,0.0,WeatherDisplay:10.37,2013-03-18 01:39:00,
2013-03-17 20:44:00,39.9,24.2,29.77,SSE,158,6.2,6.9,53,0.00,CLR,SCT,0.00,0.0,WeatherDisplay:10.37,2013-03-18 01:44:00,
2013-03-17 20:49:00,39.6,24.7,29.77,ESE,112,4.7,10.4,55,0.00,CLR,SCT,0.00,0.0,WeatherDisplay:10.37,2013-03-18 01:49:00,
2013-03-17 20:54:00,39.2,24.8,29.77,ESE,112,4.5,5.8,56,0.00,CLR,SCT,0.00,0.0,WeatherDisplay:10.37,2013-03-18 01:54:00,
2013-03-17 20:59:00,38.8,25.7,29.77,ESE,112,4.9,6.9,59,0.00,CLR,SCT,0.00,0.0,WeatherDisplay:10.37,2013-03-18 01:59:00,
2013-03-17 21:04:00,38.5,26.6,29.77,SE,135,7.6,11.5,62,0.00,CLR,SCT,0.00,0.0,WeatherDisplay:10.37,2013-03-18 02:04:00,
2013-03-17 21:09:00,38.1,28.5,29.74,SSE,158,4.5,5.8,68,0.00,CLR,SCT,0.00,0.0,WeatherDisplay:10.37,2013-03-18 02:09:00,
2013-03-17 21:14:00,37.8,29.5,29.74,SSE,158,3.6,4.0,72,0.00,CLR,SCT,0.00,0.0,WeatherDisplay:10.37,2013-03-18 02:14:00,
2013-03-17 21:19:00,37.4,28.5,29.74,SSE,158,3.8,5.9,70,0.00,CLR,SCT,0.00,0.0,WeatherDisplay:10.37,2013-03-18 02:19:00,
2013-03-17 21:24:00,37.2,28.7,29.74,SSE,158,4.0,6.9,71,0.00,CLR,SCT,0.00,0.0,WeatherDisplay:10.37,2013-03-18 02:24:00,
2013-03-17 21:29:00,37.2,29.4,29.74,SSE,158,2.9,3.8,73,0.00,CLR,SCT,0.00,0.0,WeatherDisplay:10.37,2013-03-18 02:29:00,
2013-03-17 21:34:00,37.0,28.8,29.74,East,90,3.8,4.6,72,0.00,CLR,SCT,0.00,0.0,WeatherDisplay:10.37,2013-03-18 02:34:00,
2013-03-17 21:40:00,36.9,29.3,29.77,ESE,112,5.6,6.9,74,0.00,CLR,SCT,0.00,0.0,WeatherDisplay:10.37,2013-03-18 02:40:00,
2013-03-17 21:45:00,36.7,29.5,29.77,SSW,202,5.4,9.2,75,0.00,CLR,SCT,0.00,0.0,WeatherDisplay:10.37,2013-03-18 02:45:00,
2013-03-17 21:50:00,36.5,29.7,29.77,ESE,112,4.3,4.6,76,0.00,CLR,SCT,0.00,0.0,WeatherDisplay:10.37,2013-03-18 02:50:00,
2013-03-17 21:55:00,36.3,29.8,29.80,ESE,112,3.8,5.8,77,0.00,CLR,SCT,0.00,0.0,WeatherDisplay:10.37,2013-03-18 02:55:00,
2013-03-17 22:00:00,36.1,29.6,29.80,ESE,112,3.8,8.1,77,0.00,CLR,SCT,0.00,0.0,WeatherDisplay:10.37,2013-03-18 03:00:00,
2013-03-17 22:05:00,36.1,30.3,29.80,ESE,112,3.6,4.6,79,0.00,CLR,SCT,0.00,0.0,WeatherDisplay:10.37,2013-03-18 03:05:00,
2013-03-17 22:10:00,35.8,29.6,29.80,ESE,112,3.3,4.6,78,0.00,CLR,SCT,0.00,0.0,WeatherDisplay:10.37,2013-03-18 03:10:00,
2013-03-17 22:15:00,35.8,29.9,29.80,ESE,112,2.9,4.6,79,0.00,CLR,SCT,0.00,0.0,WeatherDisplay:10.37,2013-03-18 03:15:00,
2013-03-17 22:20:00,35.6,29.4,29.80,ESE,112,2.4,4.6,78,0.00,CLR,SCT,0.00,0.0,WeatherDisplay:10.37,2013-03-18 03:20:00,
2013-03-17 22:25:00,35.6,29.7,29.80,ESE,112,3.8,5.4,79,0.00,CLR,SCT,0.00,0.0,WeatherDisplay:10.37,2013-03-18 03:25:00,
2013-03-17 22:30:00,35.6,30.0,29.80,SSE,158,3.3,4.7,80,0.00,CLR,SCT,0.00,0.0,WeatherDisplay:10.37,2013-03-18 03:30:00,
2013-03-17 22:35:00,35.4,29.9,29.80,SSE,158,2.9,5.8,80,0.00,CLR,SCT,0.00,0.0,WeatherDisplay:10.37,2013-03-18 03:35:00,
2013-03-17 22:40:00,35.4,30.2,29.80,ENE,68,3.8,4.7,81,0.00,CLR,SCT,0.00,0.0,WeatherDisplay:10.37,2013-03-18 03:40:00,
2013-03-17 22:45:00,35.2,30.3,29.80,ESE,112,4.5,6.9,82,0.00,CLR,SCT,0.00,0.0,WeatherDisplay:10.37,2013-03-18 03:45:00,
2013-03-17 22:50:00,35.1,30.1,29.80,ESE,112,3.6,4.7,82,0.00,CLR,SCT,0.00,0.0,WeatherDisplay:10.37,2013-03-18 03:50:00,
2013-03-17 22:55:00,35.1,30.1,29.77,ENE,68,3.8,5.9,82,0.00,CLR,SCT,0.00,0.0,WeatherDisplay:10.37,2013-03-18 03:55:00,
2013-03-17 23:00:00,35.1,30.4,29.77,SSE,158,3.3,3.5,83,0.00,CLR,SCT,0.00,0.0,WeatherDisplay:10.37,2013-03-18 04:00:00,
2013-03-17 23:01:00,35.1,30.4,29.77,ESE,112,2.9,4.6,83,0.00,CLR,SCT,0.00,0.0,WeatherDisplay:10.37,2013-03-18 04:01:00,
2013-03-17 23:02:00,35.1,30.4,29.77,SSE,158,3.8,4.9,83,0.00,CLR,SCT,0.00,0.0,WeatherDisplay:10.37,2013-03-18 04:02:00,
2013-03-17 23:07:00,34.9,30.5,29.77,SSE,158,4.5,6.9,84,0.00,CLR,SCT,0.00,0.0,WeatherDisplay:10.37,2013-03-18 04:07:00,
2013-03-17 23:12:00,34.9,30.5,29.77,ESE,112,4.0,5.8,84,0.00,CLR,SCT,0.00,0.0,WeatherDisplay:10.37,2013-03-18 04:12:00,
2013-03-17 23:17:00,34.9,30.5,29.77,ESE,112,4.0,5.8,84,0.00,CLR,SCT,0.00,0.0,WeatherDisplay:10.37,2013-03-18 04:17:00,
2013-03-17 23:22:00,34.9,30.8,29.77,SSW,202,3.8,6.0,85,0.00,CLR,SCT,0.00,0.0,WeatherDisplay:10.37,2013-03-18 04:22:00,
2013-03-17 23:27:00,34.7,30.7,29.77,ESE,112,4.0,5.9,85,0.00,CLR,SCT,0.00,0.0,WeatherDisplay:10.37,2013-03-18 04:27:00,
2013-03-17 23:33:00,34.7,30.9,29.77,SE,135,3.8,5.8,86,0.00,CLR,SCT,0.00,0.0,WeatherDisplay:10.37,2013-03-18 04:33:00,
2013-03-17 23:38:00,34.7,30.9,29.77,ESE,112,3.8,5.8,86,0.00,CLR,SCT,0.00,0.0,WeatherDisplay:10.37,2013-03-18 04:38:00,
2013-03-17 23:43:00,34.5,30.8,29.77,ENE,68,4.5,5.8,86,0.00,CLR,SCT,0.00,0.0,WeatherDisplay:10.37,2013-03-18 04:43:00,
2013-03-17 23:48:00,34.5,31.0,29.77,SSE,158,2.4,2.4,87,0.00,CLR,SCT,0.00,0.0,WeatherDisplay:10.37,2013-03-18 04:48:00,
2013-03-17 23:53:00,34.5,31.6,29.80,SSW,202,2.2,4.6,89,0.00,CLR,SCT,0.00,0.0,WeatherDisplay:10.37,2013-03-18 04:53:00,
2013-03-17 23:58:00,34.5,31.9,29.80,South,180,2.4,5.8,90,0.00,CLR,SCT,0.00,0.0,WeatherDisplay:10.37,2013-03-18 04:58:00,